Weather in Orikhiv

Ukraine / Zaporizhia Region     47˚34′10″N   35˚46′39″E
temp.,
°C
wind,
m/s
gust,
m/s
humid.,
%
clouds,
%
prec.,
mm/h
press.,
hPa
HPBL,
m
27 november, fri
fri2723:00+3˚ssw238554 0.0 102633
02:00+2˚s338337 0.0 102637
05:00+1˚s46860 0.0 1025100
08:00+2˚s48935 0.0 1024194
11:00+7˚ssw69739 0.0 1024610
14:00+9˚sw687041 0.0 1022927
17:00+8˚ssw51077100 0.0 1022446
20:00+6˚ssw5108194 0.0 1021271
28 november, sat
sat2823:00+8˚ssw6118092 0.0 1022428
02:00+6˚ssw5119158 0.0 1021275
05:00+5˚s599211 0.0 1021208
08:00+7˚s598855 0.0 1021298
11:00+9˚s5875100 0.0 1021731
14:00+9˚s5874100 0.1 1021812
17:00+7˚sse4887100 0.0 1020334
20:00+8˚sse51178100 0.0 1021421
29 november, sun
sun2923:00+8˚se51172100 0.0 1020407
02:00+5˚se498289 0.0 1020226
05:00+4˚se51077100 0.0 1020254
08:00+7˚se51087100 0.0 1021327
11:00+9˚sse71073100 0.0 1021586
14:00+9˚sse61076100 0.0 1020585
17:00+6˚se51081100 0.0 1021289
20:00+6˚se51282100 0.0 1021305
30 november, mon
mon3023:00+6˚se51083100 0.0 1022271
02:00+5˚se41085100 0.0 1022225
05:00+4˚ese5989100 0.0 1022279
08:00+5˚ese61193100 0.0 1023388
11:00+7˚ese6976100 0.0 1023554
14:00+8˚e6969100 0.0 1022670
17:00+5˚e51176100 0.0 1023587
20:00+5˚e51280100 0.0 1023484
1 december, tue
tue123:00+4˚e51284100 0.0 1023494
02:00+3˚ene5108195 0.0 1023525
05:00+1˚ene5117867 0.0 1024542
08:00+2˚e6117650 0.0 1024749
11:00+3˚e61072100 0.0 1023800
14:00+4˚ene61073100 0.0 1022769
17:00+4˚e61274100 0.0 1022765
20:00+5˚ese71374100 0.0 1022754